Flag for Netherlands Weather past 2 weeks in Tilburg, Netherlands

Now
68 °F

Mostly cloudy.


Feels Like: 68 °F
Forecast: 56 / 64 °F
Wind: 5 mph from Southwest

Location: Gilze-Rijen

Current Time: Aug 29, 2014 at 6:33:26 PM

Latest Report: Aug 29, 2014 at 5:55 PM


Visibility: N/A

Pressure: 29.98 "Hg

Humidity: 69%

Dew point: 57 °F

Location of TilburgLocation

Historic Weather in Tilburg — Graph

°F

Tilburg temperature yesterday

Maximum temperature yesterday: 72 °F (at 4:25 PM)
Minimum temperature yesterday: 54 °F (at 5:25 AM)
Average temperature yesterday: 63 °F

Past Weeks' High & Low Weather Summary

 TemperatureHumidityPressure
High72 °F (Aug 28, 4:25 PM)100% (Aug 14, 9:55 PM)30.09 "Hg (Aug 14, 9:55 PM)
Low43 °F (Aug 25, 5:55 AM)46% (Aug 27, 3:55 PM)29.59 "Hg (Aug 26, 3:55 AM)
Average57 °F85%29.90 "Hg
* Reported Aug 14 5:25 PM — Aug 29 5:25 PM, Tilburg, Weather by CustomWeather, © 2014

Note: Actual official high and low records may vary slightly from our data, if they occured in-between our weather recording intervals... More about our weather records

Advertising

Tilburg weather history for previous 24 hours

 ConditionsComfort  
Time TempWeatherWind HumidityBarometerVisibility
5:25 PM
Aug 29
70 °FBroken clouds.6 mph64%29.98 "HgN/A
4:55 PM68 °FPassing clouds.7 mph69%29.98 "HgN/A
4:25 PM66 °FMostly cloudy.7 mph68%29.98 "HgN/A
3:55 PM68 °FBroken clouds.7 mph64%29.98 "HgN/A
3:25 PM68 °FPartly sunny.7 mph64%29.98 "HgN/A
2:55 PM68 °FCloudy.8 mph64%29.98 "HgN/A
2:25 PM70 °FPartly sunny.9 mph57%29.98 "HgN/A
1:55 PM68 °FBroken clouds.6 mph64%29.98 "HgN/A
1:25 PM66 °FScattered clouds.9 mph68%29.98 "HgN/A
12:55 PM66 °FMostly cloudy.8 mph68%29.98 "HgN/A
12:25 PM68 °FBroken clouds.9 mph69%29.98 "HgN/A
11:55 AM66 °FScattered clouds.10 mph68%29.98 "HgN/A
11:25 AM66 °FPartly sunny.9 mph73%29.98 "HgN/A
10:55 AM66 °FBroken clouds.10 mph73%29.98 "HgN/A
10:25 AM64 °FPartly sunny.8 mph83%29.98 "HgN/A
9:55 AM63 °FPassing clouds.7 mph88%29.98 "HgN/A
9:25 AM61 °FCool.7 mph88%29.98 "HgN/A
8:55 AM59 °FPartly sunny.6 mph94%29.98 "HgN/A
8:25 AM59 °FPartly sunny.6 mph94%29.98 "HgN/A
7:55 AM55 °FBroken clouds.6 mph100%29.95 "HgN/A
7:25 AM55 °FCool.5 mph100%29.95 "HgN/A
6:55 AM55 °FPassing clouds.6 mph100%29.95 "HgN/A
6:25 AM55 °FPassing clouds.6 mph94%29.95 "HgN/A
5:55 AM55 °FPassing clouds.5 mph94%29.95 "HgN/A
5:25 AM55 °FCool.5 mph100%29.95 "HgN/A
4:55 AM57 °FOvercast.5 mph94%29.95 "HgN/A
4:25 AM57 °FCool.6 mph94%29.95 "HgN/A
3:55 AM57 °FPassing clouds.7 mph94%29.95 "HgN/A
3:25 AM57 °FCool.6 mph100%29.95 "HgN/A
2:55 AM57 °FCool.6 mph100%29.95 "HgN/A
2:25 AM57 °FPartly cloudy.6 mph100%29.95 "HgN/A
1:55 AM59 °FCool.5 mph94%29.95 "HgN/A
1:25 AM59 °FFog.6 mph94%29.95 "Hg6 mi
12:56 AM59 °FFog.5 mph94%29.95 "Hg4 mi
12:55 AM59 °FFog.5 mph94%29.92 "Hg5 mi
12:25 AM59 °FCool.5 mph100%29.92 "HgN/A
11:55 PM
Aug 28
61 °FFog.2 mph100%29.95 "Hg6 mi
11:25 PM61 °FFog.5 mph100%29.92 "Hg4 mi
11:02 PM63 °FFog.3 mph94%29.92 "Hg4 mi
10:55 PM63 °FMostly cloudy.3 mph94%29.92 "HgN/A
10:25 PM63 °FMostly cloudy.5 mph94%29.92 "HgN/A
10:04 PM63 °FSprinkles. Mostly cloudy.3 mph100%29.92 "Hg4 mi
9:55 PM63 °FDrizzle. Overcast.3 mph100%29.92 "HgN/A
9:25 PM63 °FDrizzle. More clouds than sun.3 mph100%29.92 "HgN/A
8:59 PM63 °FLight rain. Overcast.3 mph100%29.92 "HgN/A
8:55 PM63 °FFog.2 mph100%29.92 "Hg2 mi
8:25 PM63 °FMostly cloudy.5 mph100%29.92 "HgN/A
7:59 PM64 °FDrizzle. Broken clouds.8 mph94%29.92 "Hg4 mi
7:55 PM64 °FSprinkles. Broken clouds.9 mph94%29.92 "Hg3 mi
7:25 PM68 °FMostly cloudy.8 mph83%29.89 "HgN/A
6:55 PM70 °FMostly cloudy.7 mph78%29.89 "HgN/A
6:25 PM72 °FMore clouds than sun.7 mph73%29.89 "HgN/A
Weather by CustomWeather, © 2014

See weather overviewHow to use our weather pages